Regional Weather Roundup
Issued by NWS

Home | Current Version | Previous Version | Graphics & Text | Print | Product List | Glossary On
Versions: 1 2 3 4 5 6 7 8 9 10 11 12 13 14 15 16 17 18 19 20 21 22 23 24 25 26 27 28 29 30 31 32 33 34 35 36 37 38 39 40 41 42 43
157
ASUS44 KJAN 262303
RWRMS

MISSISSIPPI HOURLY WEATHER ROUNDUP
NATIONAL WEATHER SERVICE JACKSON MS
500 PM CST FRI DEC 26 2014

NOTE: "FAIR: INDICATES FEW OR NO CLOUDS BELOW 12,000 FEET WITH NO
SIGNIFICANT WEATHER AND/OR OBSTRUCTIONS TO VISIBILITY.

MSZ001>002-007>008-010>013-018>021-025>028-034>036-270000-
NORTHWEST MISSISSIPPI

CITY           SKY/WX    TMP DP  RH WIND       PRES   REMARKS
CLARKSDALE     FAIR      52  46  82 E10       30.13F
CLEVELAND      CLOUDY    54  50  87 SE10      30.11S
GREENWOOD      NOT AVBL
GREENVILLE     LGT RAIN  54  49  83 SE8       30.11S
GRENADA        FAIR      50  43  76 E8        30.15F
OLIVE BRANCH   MOCLDY    48  43  81 SE10      30.14F
OXFORD         FAIR      48  39  71 SE10G17   30.16F
TUNICA         CLOUDY    52  45  76 SE8       30.13F
$$

MSZ003>006-009-014>017-022>024-029>033-037>039-270000-
NORTHEAST MISSISSIPPI

CITY           SKY/WX    TMP DP  RH WIND       PRES   REMARKS
COLUMBUS AFB   MOCLDY    53  44  72 SE6       30.22S
CORINTH        FAIR      46  39  76 SE6       30.19F
GOLDN TRIANGLE MOCLDY    54  45  71 SE7       30.21S
STARKVILLE     FAIR      52  45  76 SE3       30.21S
TUPELO         CLOUDY    51  41  68 MISG      30.20F
$$

MSZ040-058-270000-
CENTRAL MISSISSIPPI

CITY           SKY/WX    TMP DP  RH WIND       PRES   REMARKS
JACKSON INTL   LGT RAIN  58  49  72 SE7       30.16S
JACKSON HAWKNS CLOUDY    58  49  72 SE8       30.16R
MERIDIAN KEY   PTCLDY    54  44  69 E8        30.21F
MERIDIAN NAS   MOCLDY    53  44  71 E7        30.23S
RAYMOND        CLOUDY    57  54  88 E6        30.15S
VICKSBURG      CLOUDY    58  51  78 SE10      30.14R
$$

MSZ059>079-270000-
SOUTH MISSISSIPPI

CITY           SKY/WX    TMP DP  RH WIND       PRES   REMARKS
HATTIESBURG    PTCLDY    61  50  67 E8        30.18S
MCCOMB         CLOUDY    60  52  74 NE5       30.15R
NATCHEZ        CLOUDY    57  52  82 E12       30.13R
PINE BELT      PTCLDY    59  48  67 E5        30.18F
$$

MSZ080>082-270000-
COASTAL MISSISSIPPI

CITY           SKY/WX    TMP DP  RH WIND       PRES   REMARKS
BILOXI         CLOUDY    64  54  68 SE8       30.19R
PASCAGOULA     CLEAR     62  53  72 E6        30.19R
GULFPORT       CLOUDY    62  53  72 SE13      30.18R
$$



USA.gov is the U.S. government's official web portal to all federal, state and local government web resources and services.